EW5855 Weather Reports


Display with metric or nautical units.
time (UTC)temp
F
wind
direction
speed
MPH
gust
MPH
rain 1hr
in
rain 24hr
in
rain mn
in
humidity
%
barometer
mb
20260903140527 69 269 0.0 1.0 0.00 0.00 0.00 96 1014.1
20260903135523 69 0.0 0.0 0.00 0.00 0.00 98 1014.1
20260903134539 68 193 0.0 1.0 0.00 0.00 0.00 98 1014.3
20260903133535 68 187 1.0 1.0 0.00 0.00 0.00 98 1014.3
20260903132530 68 193 0.0 1.0 0.00 0.00 0.00 98 1014.3
20260903131526 67 0.0 0.0 0.00 0.00 0.00 98 1014.4
20260903130522 67 0.0 0.0 0.00 0.00 0.00 98 1014.3
20260903125519 67 256 1.0 3.0 0.00 0.00 0.00 99 1014.2
20260903124535 67 0.0 0.0 0.00 0.00 0.00 99 1014.4
20260903123531 67 0.0 0.0 0.00 0.00 0.00 99 1014.3
20260903122547 66 0.0 0.0 0.00 0.00 0.00 99 1014.3
20260903121523 66 0.0 0.0 0.00 0.00 0.00 99 1014.5
20260903120519 66 0.0 0.0 0.00 0.00 0.00 99 1014.3
20260903115535 66 0.0 0.0 0.00 0.00 0.00 99 1014.4
20260903114531 66 0.0 0.0 0.00 0.00 0.00 99 1014.5
20260903113527 66 0.0 0.0 0.00 0.00 0.00 99 1014.5
20260903112523 66 174 0.0 1.0 0.00 0.00 0.00 99 1014.5
20260903111538 65 192 0.0 1.0 0.00 0.00 0.00 99 1014.5
20260903110535 65 0.0 0.0 0.00 0.00 0.00 99 1014.6
20260903105531 65 214 0.0 1.0 0.00 0.00 0.00 99 1014.5
20260903104527 65 203 0.0 1.0 0.00 0.00 0.00 99 1014.4
20260903103523 65 190 0.0 1.0 0.00 0.00 0.00 99 1014.3
20260903102519 65 195 0.0 1.0 0.00 0.00 0.00 99 1014.4
20260903101515 65 209 0.0 1.0 0.00 0.00 0.00 99 1014.4
20260903100531 65 209 0.0 1.0 0.00 0.00 0.00 99 1014.3
20260903095527 65 193 0.0 1.0 0.00 0.00 0.00 99 1014.3
20260903094522 65 217 0.0 1.0 0.00 0.00 0.00 99 1014.1
20260903093538 65 195 0.0 1.0 0.00 0.00 0.00 99 1014.3
20260903092534 65 224 1.0 2.0 0.00 0.00 0.00 99 1014.2
20260903091529 65 237 2.0 3.0 0.00 0.00 0.00 99 1014.3
20260903090524 66 233 2.0 4.0 0.00 0.00 0.00 98 1014.3
20260903085521 66 233 1.0 3.0 0.00 0.00 0.00 97 1014.3
20260903084536 67 243 3.0 6.0 0.00 0.00 0.00 95 1014.4
20260903083532 67 263 4.0 8.0 0.00 0.00 0.00 94 1014.6
20260903082528 67 253 2.0 6.0 0.00 0.00 0.00 94 1014.5
20260903081523 67 254 1.0 2.0 0.00 0.00 0.00 94 1014.4
20260903080519 67 241 1.0 2.0 0.00 0.00 0.00 93 1014.5
20260903075535 67 260 2.0 4.0 0.00 0.00 0.00 92 1014.6
20260903074530 67 270 4.0 6.0 0.00 0.00 0.00 92 1014.6
20260903073527 67 230 1.0 2.0 0.00 0.00 0.00 92 1014.4
20260903072522 67 264 4.0 9.0 0.00 0.00 0.00 91 1014.6
20260903071518 67 263 3.0 4.0 0.00 0.00 0.00 91 1014.5
20260903070534 67 246 3.0 7.0 0.00 0.00 0.00 91 1014.5
20260903065530 67 251 2.0 4.0 0.00 0.00 0.00 91 1014.5
20260903064526 67 244 1.0 3.0 0.00 0.00 0.00 91 1014.7
20260903063522 67 241 2.0 6.0 0.00 0.00 0.00 90 1014.7
20260903062517 67 234 2.0 6.0 0.00 0.00 0.00 90 1014.8
20260903061534 67 223 3.0 8.0 0.00 0.00 0.00 90 1014.7
20260903060530 67 251 3.0 8.0 0.00 0.00 0.00 90 1014.9
20260903055525 66 228 3.0 6.0 0.00 0.00 0.00 91 1015.1
20260903054520 66 215 2.0 3.0 0.00 0.00 0.00 90 1015.2
20260903053517 67 220 1.0 3.0 0.00 0.00 0.00 89 1015.4
20260903052533 67 240 4.0 7.0 0.00 0.00 0.00 87 1015.6
20260903051529 67 222 2.0 6.0 0.00 0.00 0.00 86 1015.8
20260903050544 67 253 2.0 3.0 0.00 0.00 0.00 85 1015.4
20260903045515 67 224 2.0 4.0 0.00 0.00 0.00 85 1015.6
20260903044531 67 225 3.0 7.0 0.00 0.00 0.00 84 1015.3
20260903043527 67 208 2.0 6.0 0.00 0.00 0.00 85 1015.5
20260903042522 66 222 2.0 8.0 0.00 0.00 0.00 86 1015.6
20260903041518 66 217 1.0 6.0 0.00 0.00 0.00 86 1015.9
20260903040554 66 214 0.0 1.0 0.00 0.00 0.00 89 1015.8
20260903035529 66 249 2.0 4.0 0.00 0.00 0.00 88 1015.8
20260903034525 67 245 2.0 6.0 0.00 0.00 0.00 86 1015.8
20260903033521 67 225 2.0 7.0 0.00 0.00 0.00 85 1015.7
20260903032517 67 221 3.0 9.0 0.00 0.00 0.00 86 1016.0
20260903031553 66 227 1.0 2.0 0.00 0.00 0.00 90 1016.3
20260903030528 67 187 0.0 1.0 0.00 0.00 0.00 88 1016.7
20260903025523 67 236 2.0 4.0 0.00 0.00 0.00 86 1017.0
20260903024519 67 247 2.0 6.0 0.00 0.00 0.00 86 1016.8
20260903023534 67 222 2.0 4.0 0.00 0.00 0.00 86 1016.7
20260903022530 67 229 2.0 8.0 0.00 0.00 0.00 86 1016.7
20260903021546 67 207 3.0 7.0 0.00 0.00 0.00 87 1017.0
20260903020521 67 229 3.0 7.0 0.00 0.00 0.00 88 1017.3
20260903015517 66 211 2.0 7.0 0.00 0.00 0.00 91 1017.4
20260903014553 66 203 1.0 3.0 0.00 0.00 0.00 94 1017.5
20260903013528 66 205 0.0 1.0 0.00 0.00 0.00 93 1017.8
20260903012525 66 235 1.0 2.0 0.00 0.00 0.00 95 1017.8
20260903011521 66 226 1.0 2.0 0.00 0.00 0.00 96 1017.7
20260903010517 66 0.0 0.0 0.00 0.00 0.00 97 1017.6
20260903005533 66 0.0 0.0 0.00 0.00 0.00 98 1017.5
20260903004528 66 0.0 0.0 0.00 0.00 0.00 97 1017.6
20260903003524 66 203 0.0 1.0 0.00 0.00 0.00 96 1017.6
20260903002520 67 228 0.0 1.0 0.00 0.00 0.00 95 1017.4
20260903001517 67 50 1.0 2.0 0.00 0.00 0.00 94 1017.2
20260903000534 67 148 0.0 1.0 0.00 0.00 0.00 94 1016.6
20260902235530 67 198 0.0 1.0 0.00 0.00 0.00 95 1017.2
20260902234526 67 270 1.0 2.0 0.00 0.00 0.00 91 1016.6
20260902233523 68 178 0.0 1.0 0.00 0.00 0.00 92 1016.4
20260902232519 67 180 1.0 2.0 0.00 0.00 0.00 92 1016.8
20260902231534 67 0.0 0.0 0.00 0.00 0.00 95 1017.1
20260902230548 67 0.0 0.0 0.00 0.00 0.00 95 1017.4
20260902225524 68 0.0 0.0 0.00 0.00 0.00 94 1017.8
20260902224519 68 0.0 0.0 0.00 0.00 0.00 94 1018.4
20260902223535 69 0.0 0.0 0.00 0.00 0.00 91 1018.8
20260902222530 69 0.0 0.0 0.00 0.00 0.00 90 1018.8
20260902221526 70 0.0 0.0 0.00 0.00 0.00 91 1018.9
20260902220522 70 0.0 0.0 0.00 0.00 0.00 88 1019.1
20260902215517 70 0.0 0.0 0.00 0.00 0.00 88 1019.0
20260902214533 69 179 1.0 2.0 0.00 0.00 0.00 89 1019.0
20260902213528 70 183 0.0 1.0 0.00 0.00 0.00 92 1019.2
20260902212523 70 182 0.0 2.0 0.00 0.00 0.00 92 1019.2
20260902211520 70 191 1.0 1.0 0.00 0.00 0.00 89 1019.3
20260902210535 71 195 0.0 2.0 0.00 0.00 0.00 88 1019.1
20260902205530 71 233 1.0 1.0 0.00 0.00 0.00 89 1019.0
20260902204607 71 221 1.0 1.0 0.00 0.00 0.00 86 1019.1
20260902203522 71 244 1.0 3.0 0.00 0.00 0.00 86 1019.1
20260902202517 71 247 1.0 3.0 0.00 0.00 0.00 85 1019.2
20260902201532 71 251 2.0 3.0 0.00 0.00 0.00 85 1019.1
20260902200528 71 213 1.0 3.0 0.00 0.00 0.00 84 1019.1
20260902195543 71 220 1.0 2.0 0.00 0.00 0.00 85 1019.1
20260902194519 71 224 0.0 1.0 0.00 0.00 0.00 86 1019.4
20260902193535 71 216 1.0 2.0 0.00 0.00 0.00 86 1019.3
20260902192532 71 199 0.0 1.0 0.00 0.00 0.00 87 1019.4
20260902191527 71 233 0.0 1.0 0.00 0.00 0.00 87 1019.7
20260902190543 71 196 0.0 1.0 0.00 0.00 0.00 86 1019.8
20260902185520 70 202 0.0 1.0 0.00 0.00 0.00 87 1019.9
20260902184515 70 262 3.0 4.0 0.00 0.00 0.00 85 1020.1
20260902183533 70 250 3.0 3.0 0.00 0.00 0.00 85 1020.0
20260902182528 70 239 2.0 3.0 0.00 0.00 0.00 86 1019.8
20260902181523 71 237 1.0 2.0 0.00 0.00 0.00 83 1020.0
20260902180519 71 270 3.0 4.0 0.00 0.00 0.00 83 1019.8
20260902175535 71 230 2.0 3.0 0.00 0.00 0.00 83 1020.0
20260902174531 71 249 2.0 4.0 0.00 0.00 0.00 85 1019.9
20260902173527 71 230 1.0 3.0 0.00 0.00 0.00 86 1020.0
20260902172542 70 254 2.0 4.0 0.00 0.00 0.00 86 1020.1
20260902171538 70 247 2.0 3.0 0.00 0.00 0.00 84 1020.0
20260902170534 70 232 1.0 2.0 0.00 0.00 0.00 83 1020.1
20260902165530 71 209 1.0 2.0 0.00 0.00 0.00 83 1020.0
20260902164525 72 182 1.0 3.0 0.00 0.00 0.00 80 1020.1
20260902163521 72 233 1.0 6.0 0.00 0.00 0.00 78 1020.3
20260902162518 71 168 1.0 3.0 0.00 0.00 0.00 79 1020.3
20260902161533 71 191 2.0 4.0 0.00 0.00 0.00 81 1020.4
20260902160529 70 167 1.0 3.0 0.00 0.00 0.00 80 1020.4
20260902155526 70 179 1.0 4.0 0.00 0.00 0.00 81 1020.5
20260902154520 70 235 1.0 3.0 0.00 0.00 0.00 80 1020.7
20260902153535 70 188 0.0 1.0 0.00 0.00 0.00 82 1021.1
20260902152551 70 194 1.0 3.0 0.00 0.00 0.00 81 1021.0
20260902151526 70 184 1.0 2.0 0.00 0.01 0.00 83 1021.0
20260902150522 69 203 0.0 2.0 0.00 0.01 0.00 88 1021.1
20260902145518 70 0.0 0.0 0.00 0.02 0.00 87 1021.0
20260902144534 69 196 1.0 2.0 0.00 0.03 0.00 86 1021.1
20260902143530 69 188 1.0 3.0 0.00 0.05 0.00 84 1021.2
20260902142526 69 238 0.0 1.0 0.00 0.06 0.00 86 1021.2
20260902141523 69 254 0.0 1.0 0.00 0.07 0.00 86 1021.1